Tracking 34408 objects as of 14-Jun-2026
HD Live streaming from Space Station
objects crossing your sky now

DELTA 1 DEB

Track DELTA 1 DEB now!
10-day predictions


NORAD ID: 7052
Int'l Code: 1973-086AU
Perigee: 1,506.7 km
Apogee: 1,541.9 km
Inclination: 102.4 °
Period: 116.4 minutes
Semi major axis: 7895 km
RCS: 0.0861 m2 (small)
Launch date: November 6, 1973
Source: United States (US)
Launch site: AIR FORCE WESTERN TEST RANGE (AFWTR)

Note: This is SATELLITE DEBRIS
Your satellite tracking list
Your tracking list is empty




NASA's NSSDC Master Catalog

Two Line Element Set (TLE):
1  7052U 73086AU  26164.94042894  .00000001  00000-0  36444-3 0  9992
2  7052 102.3897 175.6061 0022245 270.0857 205.1940 12.37515055374533
Source of the keplerian elements: AFSPC